User: anonymous   Login
Location: Unspecified
(0.0000°N, 0.0000°E)
Time: 06:49:44
(UTC+00:00)
Language:

KITSAT 1 - Orbit

View from above orbital plane
View from above orbital plane
View from above satellite
View from above satellite

Ground track
Ground track

The orbit data is extracted from the following two-line orbital elements,

1 22077U 92052B   17087.90982307 -.00000025 +00000-0 +14623-3 0  9994
2 22077 066.0833 134.7101 0004844 343.6809 071.4219 12.86517772156693
Epoch (UTC): 28 March 2017 21:50:08
Eccentricity: 0.0004844
inclination: 66.0833°
perigee height: 1311 km
apogee height: 1319 km
right ascension of ascending node: 134.7101°
argument of perigee: 343.6809°
revolutions per day: 12.86517772
mean anomaly at epoch: 71.4219°
orbit number at epoch: 15669

The dashed part of the orbit path shows where the satellite is in the earth's shadow,  

DLR